Theta_e
331 331 331 331 331 330 331 330 331 332 328 333 334 337 334 336 342 342 343 346 345 344 344 344 343 340 340 341 345 348 348 347 347 345 343 341 339 337 335 334 333 333 332
331 332 332 331 330 330 332 331 331 331 332 334 335 336 336 338 342 342 342 342 344 343 343 342 342 341 344 342 343 347 345 346 345 342 340 340 337 334 333 333 333 333 332
332 334 331 331 330 330 331 331 331 332 332 335 335 335 335 337 340 341 342 340 341 343 343 341 343 343 344 344 344 345 346 345 342 341 339 338 336 335 333 333 333 333 331
334 333 330 331 332 332 328 330 330 330 330 332 332 333 334 338 340 342 341 340 338 339 341 341 341 341 343 342 342 345 345 343 341 339 337 335 334 333 333 333 332 331 330
334 334 330 332 333 330 329 330 328 328 330 330 332 331 335 336 340 342 339 339 338 337 337 340 338 341 342 343 343 346 344 341 340 338 335 334 334 333 332 332 332 330 329
333 335 332 331 333 329 328 328 328 330 330 330 330 331 334 336 340 336 337 338 337 335 334 336 335 337 339 340 342 345 343 340 337 335 336 335 333 332 332 331 331 330 328
332 334 332 329 333 330 328 329 329 328 328 330 327 327 331 336 334 333 335 332 332 333 333 333 333 334 335 339 341 344 342 339 337 335 336 334 333 331 331 330 329 328 327
333 335 332 330 332 331 330 329 329 326 327 328 326 324 320 325 329 331 332 330 330 332 331 332 333 333 334 333 338 342 340 338 337 335 334 333 332 330 329 328 327 327 327
333 334 334 331 331 333 331 329 330 327 325 327 329 326 319 317 323 328 329 330 330 330 330 331 332 332 333 334 337 338 339 338 337 335 333 331 330 329 328 327 327 327 326
333 333 334 332 332 332 331 331 330 327 325 324 330 332 330 325 319 318 327 328 330 330 329 330 331 332 334 334 336 337 336 337 335 333 331 331 330 329 328 327 327 328 326
334 333 333 334 332 332 332 333 330 329 327 327 328 328 328 327 325 320 316 322 327 329 330 331 331 332 334 333 334 334 333 333 332 332 332 331 329 328 327 327 326 325 324
332 334 333 335 335 332 334 336 333 330 330 331 331 329 327 323 321 321 320 320 321 326 330 331 331 331 331 333 336 332 330 329 328 328 329 330 331 331 328 327 325 323 323
330 332 333 335 336 336 336 336 334 332 330 331 330 331 330 327 326 325 322 319 316 321 325 330 331 331 332 333 335 331 330 326 325 325 325 327 328 329 329 329 326 325 323
332 333 334 331 334 335 335 335 332 333 334 332 331 331 329 327 327 325 322 319 316 317 322 324 331 331 331 333 334 331 327 324 323 322 323 324 325 326 326 326 326 325 326
333 332 333 333 334 334 333 333 331 331 332 331 331 328 327 326 325 325 324 323 320 315 316 323 323 330 331 333 331 329 326 325 324 321 320 320 321 321 322 322 321 322 321
331 328 329 331 334 333 333 334 332 333 331 328 327 326 324 324 325 324 324 323 324 321 316 324 325 329 332 334 332 330 328 324 323 320 319 318 318 318 318 318 318 318 317
331 331 329 330 332 333 333 333 330 330 330 328 326 323 322 324 323 322 324 323 323 322 319 323 326 330 328 327 328 328 324 321 318 318 318 317 315 315 315 315 315 315 315
331 331 332 331 332 331 333 330 329 330 327 326 325 323 322 323 321 321 323 321 322 322 322 320 322 326 325 323 322 323 319 316 315 317 316 315 313 313 312 312 312 311 311
330 331 331 331 331 331 330 331 330 329 328 326 324 322 321 321 321 321 321 320 320 325 324 322 321 321 321 318 318 323 323 321 319 319 314 314 312 312 311 310 310 309 307
329 329 331 330 331 332 332 331 331 330 329 326 326 324 323 323 323 323 322 322 326 324 323 321 321 318 319 322 318 320 321 322 320 316 315 312 311 311 311 310 310 310 306
331 329 329 332 332 333 333 331 331 329 327 326 326 326 325 324 323 324 327 325 327 322 321 319 317 318 319 319 319 321 318 319 319 321 311 308 306 305 305 309 309 312 308
329 328 327 327 326 320 307 316 329 331 330 329 328 326 323 318 316 314 316 314 320 320 319 318 318 316 316 319 319 319 319 316 314 322 317 315 308 306 305 306 307 305 305
332 327 326 325 324 318 305 308 317 329 326 325 325 324 324 324 321 319 309 310 310 309 315 328 321 320 321 323 322 321 319 318 319 320 317 314 318 316 316 314 308 305 303
332 329 326 325 323 312 305 306 317 330 330 328 328 325 320 324 319 323 323 322 322 322 322 325 326 324 319 317 323 325 324 323 323 323 322 316 318 318 319 319 311 305 303
332 331 328 326 322 318 304 304 319 329 329 327 324 323 328 322 304 304 323 321 321 316 303 302 300 299 298 298 302 317 316 315 313 315 319 318 316 314 316 317 317 305 301
332 328 328 328 319 322 300 300 307 326 325 323 321 312 305 314 300 301 320 321 318 319 311 307 309 304 301 306 300 309 310 307 305 304 308 305 303 302 301 307 304 304 303
Wind_Speed
4 5 4 4 4 4 7 7 8 5 8 6 6 6 7 8 9 6 6 22 20 23 25 24 20 14 13 13 18 17 16 17 19 18 16 17 16 16 15 14 14 13 14
3 4 3 4 4 4 5 7 7 6 5 6 5 6 5 10 10 9 8 12 23 24 24 24 26 21 18 17 17 18 18 19 20 18 16 16 16 15 14 13 14 15 14
5 4 4 4 4 5 5 6 7 6 6 4 5 6 1 10 7 7 10 9 14 23 22 26 23 20 18 19 20 21 20 20 19 17 15 16 14 14 14 14 13 14 14
5 4 4 3 4 5 6 5 6 5 4 4 5 5 6 7 7 6 10 10 9 9 18 23 22 19 18 20 20 23 21 18 19 17 15 15 14 14 13 14 14 13 13
5 3 4 3 4 4 5 5 5 4 4 5 4 2 5 5 5 5 12 12 12 9 6 16 15 15 18 19 20 21 20 19 18 17 16 15 14 13 13 13 14 12 12
5 3 4 4 4 4 5 5 8 7 6 6 4 5 5 4 4 5 9 9 11 11 9 11 8 6 16 21 22 23 21 20 19 17 14 13 13 13 14 12 12 12 12
7 3 4 6 5 5 6 6 5 7 6 5 5 5 5 6 7 8 8 9 12 10 10 8 6 6 4 17 23 20 20 20 18 16 12 12 12 13 14 13 11 10 10
6 3 5 7 6 4 5 5 6 4 2 2 5 4 4 3 5 7 9 9 11 9 9 7 7 5 4 3 11 18 18 18 18 17 14 12 12 12 13 12 11 10 9
3 4 5 5 5 4 4 7 5 5 4 3 8 4 3 3 5 4 8 9 11 8 10 8 7 5 4 6 12 13 15 16 17 17 16 15 14 13 11 10 10 9 8
2 4 4 5 7 4 6 4 6 4 4 4 4 1 6 5 4 4 8 8 7 9 9 7 7 7 8 7 12 11 13 14 16 16 15 13 12 12 12 10 9 8 5
3 4 4 3 3 2 5 6 9 12 7 4 3 4 8 7 5 5 9 7 5 6 8 7 7 7 9 4 5 9 12 11 12 12 12 13 12 12 10 10 9 6 6
2 3 5 3 3 4 4 4 5 10 7 7 6 7 8 6 9 5 8 6 6 6 6 8 8 7 5 3 8 11 12 11 10 10 10 10 10 10 11 9 8 5 4
3 4 4 3 2 4 4 4 5 8 11 9 7 6 5 8 7 9 7 5 4 3 3 5 7 6 5 3 4 8 11 10 10 9 9 9 10 9 9 8 6 6 6
3 4 4 6 7 6 6 6 6 8 10 8 10 9 8 8 8 9 7 9 5 3 4 3 7 5 4 4 4 9 6 10 10 9 9 9 8 9 8 8 7 6 7
5 7 5 5 6 6 9 10 9 9 10 9 10 11 8 8 8 7 9 4 2 5 3 3 4 4 4 3 6 5 6 7 9 8 7 8 8 7 7 8 9 9 10
6 8 5 8 8 8 12 11 9 9 11 8 8 11 10 7 9 8 7 5 5 5 4 2 2 6 6 7 8 6 8 11 8 7 8 7 9 10 9 8 9 10 11
6 9 5 6 9 9 10 10 9 10 11 10 9 9 12 10 7 7 6 5 7 4 6 2 4 7 6 7 7 1 6 6 5 10 11 12 11 10 10 12 11 10 12
7 7 7 8 5 9 9 12 10 9 10 10 9 10 9 9 9 7 6 6 7 4 6 11 5 5 4 5 6 5 6 7 7 13 15 12 11 13 12 11 11 12 12
7 8 7 5 8 7 8 9 9 8 9 9 9 11 11 12 10 7 7 5 3 2 4 7 6 3 2 4 4 4 5 6 7 12 15 14 13 13 12 12 13 15 15
8 7 4 6 5 8 9 8 9 8 9 8 8 9 11 11 13 11 7 5 4 8 6 7 6 5 4 5 5 4 4 2 2 4 9 10 12 13 14 14 14 15 15
7 7 5 5 7 6 6 10 10 8 9 10 9 9 9 9 10 7 4 4 6 5 7 5 4 4 4 3 5 4 4 5 6 5 5 6 6 7 7 14 15 18 18
7 6 7 9 7 6 5 9 11 9 7 7 9 8 7 10 6 7 8 7 6 7 5 5 4 5 6 5 5 5 4 4 4 6 6 5 7 7 8 9 16 19 20
6 9 8 7 6 6 12 9 12 7 7 7 9 10 11 8 9 7 9 10 8 10 6 4 5 5 6 7 6 6 5 3 3 2 3 4 5 8 8 11 19 22 24
6 7 9 7 6 4 10 10 9 7 6 7 7 7 7 6 5 7 6 5 4 4 4 4 3 6 5 4 4 1 3 2 3 3 3 7 4 6 5 5 10 16 18
4 5 8 8 6 5 5 8 4 6 6 5 7 6 7 7 7 7 7 6 5 3 6 10 9 7 6 5 4 3 2 2 3 3 5 3 3 5 5 4 4 9 8
5 4 6 8 9 5 1 1 5 3 6 5 6 6 8 8 8 8 1 6 5 4 5 3 2 2 6 8 8 4 2 1 1 4 4 4 4 4 4 3 5 4 4
Wind_Direction
249 248 226 249 256 228 187 192 216 210 204 208 207 197 216 154 159 147 151 163 161 159 158 153 154 171 177 189 173 146 142 136 120 120 119 117 117 118 120 121 120 113 105
230 275 269 250 232 245 170 184 212 217 191 177 207 238 224 155 160 161 157 166 161 162 160 158 151 180 186 180 172 146 144 129 126 121 125 122 123 125 125 127 121 115 113
224 243 260 241 224 210 174 191 223 223 163 167 194 235 26 135 175 152 150 164 168 167 169 164 169 173 172 172 169 148 135 129 128 126 127 125 125 130 133 126 121 120 114
258 246 262 238 206 201 183 185 213 204 181 173 201 202 179 160 130 141 154 154 149 164 167 168 172 177 174 163 164 147 132 134 129 129 130 130 134 137 136 130 127 122 117
273 240 257 252 173 175 190 183 204 203 170 188 192 224 120 139 125 141 146 148 146 144 144 169 173 182 172 165 162 147 141 136 132 132 138 138 140 143 135 133 125 127 118
255 239 232 255 198 171 188 214 204 167 173 190 127 117 128 132 133 143 124 127 124 124 119 125 149 142 161 170 174 157 147 141 139 137 141 138 147 142 134 132 131 129 129
270 216 223 204 207 176 183 203 151 173 182 131 107 103 108 86 102 108 112 118 114 116 130 116 121 133 166 192 160 146 148 143 141 132 143 147 150 141 138 140 136 136 132
236 198 203 177 175 188 176 168 158 168 156 152 133 120 119 80 101 119 119 122 125 120 117 116 118 121 122 176 155 148 146 147 141 148 156 148 144 146 142 144 145 152 148
188 203 209 184 164 164 170 179 162 141 121 208 141 128 118 139 120 135 120 124 129 129 132 122 111 99 131 173 161 145 147 150 149 157 160 151 151 149 151 156 161 159 161
189 186 229 156 165 173 164 177 137 97 109 137 85 107 84 112 142 136 112 112 116 122 126 122 137 133 147 170 137 142 140 150 157 160 153 150 160 158 163 170 165 172 187
343 191 215 196 151 100 171 166 146 152 158 203 159 136 103 97 76 99 113 121 114 122 129 136 125 143 148 147 116 139 137 150 152 149 153 164 169 174 175 176 180 182 181
6 169 169 175 152 172 187 151 157 155 157 138 135 144 135 132 146 124 109 132 128 118 135 135 142 136 128 125 122 147 153 150 148 148 163 173 173 182 185 190 183 187 188
40 117 113 158 175 165 159 141 155 141 134 127 127 107 94 120 123 117 121 107 100 88 124 126 130 133 136 128 143 164 152 146 147 156 164 178 179 190 194 190 191 180 204
67 120 133 147 173 160 141 152 128 108 99 96 101 101 112 108 116 127 134 129 110 74 56 134 115 125 115 149 183 161 147 155 158 170 181 175 185 195 194 197 185 188 200
83 61 46 98 113 136 133 118 110 111 91 94 98 100 107 107 101 98 107 98 127 120 81 53 119 177 166 170 165 180 136 164 173 182 168 180 191 205 205 189 186 189 190
90 83 52 112 109 130 123 109 113 110 104 99 101 111 105 103 105 107 110 100 84 103 105 140 122 159 176 178 178 187 157 169 176 179 185 190 201 205 207 201 202 197 201
73 110 92 70 120 112 114 115 111 110 109 110 113 111 109 116 117 107 109 117 117 117 132 119 129 158 161 144 168 197 151 162 174 193 199 203 210 207 212 214 209 206 211
69 82 105 108 81 112 124 122 131 128 122 122 119 122 122 119 117 119 135 155 170 186 151 146 141 139 120 139 157 169 173 185 188 201 200 203 209 218 219 217 216 214 217
94 79 86 113 115 119 123 106 121 119 115 127 132 135 128 126 142 155 175 190 185 177 140 121 123 109 128 152 170 210 198 220 206 195 200 206 210 213 217 220 222 223 222
113 105 110 102 118 131 124 129 133 130 133 130 129 123 135 148 162 183 194 210 219 133 119 136 145 169 164 172 164 198 222 231 203 171 200 197 203 212 217 224 231 233 231
115 140 159 148 87 91 126 135 133 127 128 133 138 138 155 164 172 199 195 224 166 132 143 149 152 145 162 157 186 201 196 211 235 195 187 204 198 212 226 232 235 231 227
125 119 70 81 81 67 60 117 127 134 126 123 134 132 135 119 132 184 209 90 73 145 163 139 150 167 194 170 189 209 214 207 246 211 216 215 191 214 217 216 220 224 218
95 103 93 91 81 69 45 83 112 108 115 121 129 141 159 157 160 129 90 95 90 90 93 103 147 176 176 185 181 198 219 229 248 285 172 252 206 232 208 219 211 212 221
102 111 111 101 89 64 47 47 103 108 119 124 135 111 114 129 108 128 134 148 131 87 54 59 54 60 68 33 34 281 204 260 282 264 225 262 257 243 233 230 226 220 224
129 124 130 125 115 118 65 55 82 110 110 118 79 85 139 126 127 94 153 153 149 112 78 82 98 109 95 76 70 19 315 349 307 319 9 316 334 336 346 321 329 11 282
160 159 140 143 146 139 185 44 32 118 124 112 108 89 55 124 108 63 121 143 142 173 147 124 107 174 195 181 163 150 130 232 296 333 359 54 15 18 323 341 343 343 322